Weather History for Pampa, TX

Change the Weather History Date:

Saturday, January 5, 2013

  Actual Average Record
Temperature  
Mean Temperature 32 °F -  
Max Temperature 42 °F 44 °F 69 °F (1989)
Min Temperature 23 °F 20 °F -1 °F (1971)
Degree Days  
Heating Degree Days 32    
Moisture  
Dew Point 21 °F    
Average Humidity 70    
Maximum Humidity 93    
Minimum Humidity 38    
Precipitation  
Precipitation 0.00 in - - ()
Sea Level Pressure  
Sea Level Pressure 30.17 in    
Wind  
Wind Speed 12 mph (WNW)    
Max Wind Speed 21 mph    
Max Gust Speed 24 mph    
Visibility 10 miles    
Events      
Averages and records for this station are not official NWS values.
T = Trace of Precipitation, MM = Missing Value Source: NWS Daily Summary

Daily Weather History Graph

Daily Weather History Graph

Search for Another Location

Airport:

Trip Planner

Search our weather history database for the weather conditions in past years. The results will help you decide how hot, cold, wet, or windy it might be!

Date:

Astronomy

Jan. 05, 2013 Rise Set
Actual Time 7:54 AM CST 5:45 PM CST
Civil Twilight 7:25 AM CST 6:13 PM CST
Nautical Twilight 6:54 AM CST 6:45 PM CST
Astronomical Twilight 6:23 AM CST 7:16 PM CST
Moon 1:09 AM CST (1/5) 12:30 PM CST (1/5)
Length of Visible Light 10h 47m
Length of Day
9h 51m
Last Quarter, 44% of the Moon is Illuminated
Jan 5
Last Quarter
Jan 11
New
Jan 18
First Quarter
Jan 26
Full
Feb 3
Last Quarter

Hourly Weather History & Observations

Time (CST) Temp. Windchill Dew Point Humidity Pressure Visibility Wind Dir Wind Speed Gust Speed Precip Events Conditions
12:15 AM 32.0 °F 22.5 °F 26.6 °F 80% 30.13 in 10.0 mi SSW 12.7 mph - N/A   Overcast
12:55 AM 30.2 °F 20.2 °F 26.6 °F 86% 30.12 in 10.0 mi SSW 12.7 mph - N/A   Overcast
1:15 AM 30.2 °F 20.8 °F 26.6 °F 86% 30.12 in 10.0 mi SSW 11.5 mph - N/A   Scattered Clouds
1:35 AM 30.2 °F 22.6 °F 24.8 °F 80% 30.11 in 10.0 mi SSW 8.1 mph - N/A   Scattered Clouds
1:55 AM 28.4 °F 18.5 °F 24.8 °F 86% 30.11 in 10.0 mi SW 11.5 mph - N/A   Scattered Clouds
2:15 AM 28.4 °F 18.5 °F 23.0 °F 80% 30.10 in 10.0 mi SW 11.5 mph - N/A   Clear
2:35 AM 28.4 °F 18.5 °F 23.0 °F 80% 30.10 in 10.0 mi SW 11.5 mph - N/A   Clear
2:55 AM 28.4 °F 17.0 °F 23.0 °F 80% 30.10 in 10.0 mi SW 15.0 mph - N/A   Clear
3:15 AM 28.4 °F 18.0 °F 23.0 °F 80% 30.09 in 10.0 mi SW 12.7 mph - N/A   Clear
3:35 AM 28.4 °F 17.0 °F 23.0 °F 80% 30.08 in 10.0 mi SW 15.0 mph 19.6 mph N/A   Clear
3:55 AM 28.4 °F 18.0 °F 23.0 °F 80% 30.08 in 10.0 mi SW 12.7 mph - N/A   Clear
4:15 AM 28.4 °F 18.5 °F 23.0 °F 80% 30.08 in 10.0 mi SW 11.5 mph - N/A   Clear
4:35 AM 26.6 °F 15.7 °F 23.0 °F 86% 30.07 in 10.0 mi SW 12.7 mph - N/A   Clear
4:55 AM 26.6 °F 16.8 °F 21.2 °F 80% 30.07 in 10.0 mi SW 10.4 mph - N/A   Clear
5:15 AM 26.6 °F 16.2 °F 21.2 °F 80% 30.07 in 10.0 mi SW 11.5 mph - N/A   Clear
5:35 AM 26.6 °F 15.7 °F 23.0 °F 86% 30.07 in 10.0 mi WSW 12.7 mph - N/A   Clear
5:55 AM 26.6 °F 16.2 °F 21.2 °F 80% 30.08 in 10.0 mi WSW 11.5 mph - N/A   Clear
6:15 AM 23.0 °F 11.1 °F 21.2 °F 93% 30.07 in 10.0 mi WSW 12.7 mph - N/A   Clear
6:35 AM 24.8 °F 14.6 °F 21.2 °F 86% 30.07 in 10.0 mi WSW 10.4 mph - N/A   Clear
7:35 AM 23.0 °F 10.6 °F 19.4 °F 86% 30.09 in 10.0 mi West 13.8 mph - N/A   Clear
7:55 AM 23.0 °F 10.6 °F 19.4 °F 86% 30.11 in 10.0 mi West 13.8 mph - N/A   Clear
8:15 AM 23.0 °F 10.6 °F 19.4 °F 86% 30.11 in 10.0 mi West 13.8 mph - N/A   Clear
8:35 AM 24.8 °F 13.4 °F 19.4 °F 80% 30.12 in 10.0 mi West 12.7 mph - N/A   Clear
8:55 AM 26.6 °F 16.8 °F 21.2 °F 80% 30.13 in 10.0 mi WNW 10.4 mph - N/A   Clear
9:15 AM 26.6 °F 16.8 °F 21.2 °F 80% 30.13 in 10.0 mi WNW 10.4 mph - N/A   Clear
9:55 AM 28.4 °F 18.0 °F 17.6 °F 64% 30.14 in 10.0 mi WNW 12.7 mph - N/A   Clear
10:15 AM 32.0 °F 23.0 °F 17.6 °F 55% 30.14 in 10.0 mi WNW 11.5 mph - N/A   Clear
10:55 AM 33.8 °F 23.9 °F 14.0 °F 44% 30.16 in 10.0 mi WNW 15.0 mph - N/A   Clear
11:55 AM 37.4 °F 28.5 °F 14.0 °F 38% 30.19 in 10.0 mi NW 15.0 mph - N/A   Clear
12:35 PM 37.4 °F 27.8 °F 17.6 °F 45% 30.16 in 10.0 mi NW 17.3 mph - N/A   Clear
12:55 PM 41.0 °F 32.8 °F 17.6 °F 39% 30.15 in 10.0 mi NNW 16.1 mph 24.2 mph N/A   Clear
1:15 PM 41.0 °F 32.5 °F 19.4 °F 42% 30.15 in 10.0 mi NNW 17.3 mph - N/A   Clear
1:35 PM 41.0 °F 31.6 °F 19.4 °F 42% 30.15 in 10.0 mi NNW 20.7 mph - N/A   Clear
1:55 PM 42.8 °F 34.8 °F 19.4 °F 39% 30.16 in 10.0 mi NNW 17.3 mph 23.0 mph N/A   Clear
2:35 PM 42.8 °F 34.5 °F 21.2 °F 42% 30.16 in 10.0 mi NNW 18.4 mph 23.0 mph N/A   Clear
2:55 PM 42.8 °F 34.8 °F 21.2 °F 42% 30.17 in 10.0 mi NNW 17.3 mph 21.9 mph N/A   Clear
3:15 PM 42.8 °F 34.5 °F 21.2 °F 42% 30.17 in 10.0 mi NNW 18.4 mph 23.0 mph N/A   Clear
3:35 PM 42.8 °F 35.4 °F 19.4 °F 39% 30.19 in 10.0 mi NNW 15.0 mph - N/A   Clear
5:15 PM 37.4 °F 28.9 °F 21.2 °F 52% 30.24 in 10.0 mi NNW 13.8 mph - N/A   Clear
5:35 PM 35.6 °F 27.5 °F 21.2 °F 56% 30.24 in 10.0 mi North 11.5 mph - N/A   Clear
5:55 PM 32.0 °F 24.2 °F 21.2 °F 64% 30.26 in 10.0 mi NNW 9.2 mph - N/A   Clear
6:35 PM 32.0 °F 23.0 °F 21.2 °F 64% 30.27 in 10.0 mi North 11.5 mph - N/A   Clear
6:55 PM 30.2 °F 21.3 °F 21.2 °F 69% 30.28 in 10.0 mi North 10.4 mph - N/A   Clear
7:15 PM 30.2 °F 20.8 °F 23.0 °F 75% 30.28 in 10.0 mi North 11.5 mph - N/A   Clear
8:15 PM 30.2 °F 21.9 °F 23.0 °F 75% 30.30 in 10.0 mi NNW 9.2 mph - N/A   Clear
8:35 PM 30.2 °F 21.9 °F 23.0 °F 75% 30.30 in 10.0 mi NNW 9.2 mph - N/A   Clear
8:55 PM 30.2 °F 24.3 °F 23.0 °F 75% 30.30 in 10.0 mi NNW 5.8 mph - N/A   Clear
9:15 PM 28.4 °F 21.2 °F 23.0 °F 80% 30.32 in 10.0 mi North 6.9 mph - N/A   Clear
9:35 PM 30.2 °F 22.6 °F 23.0 °F 75% 30.33 in 10.0 mi NNW 8.1 mph - N/A   Clear
9:55 PM 28.4 °F 20.4 °F 23.0 °F 80% 30.33 in 10.0 mi NNW 8.1 mph - N/A   Clear
10:15 PM 28.4 °F 21.2 °F 23.0 °F 80% 30.34 in 10.0 mi NNW 6.9 mph - N/A   Clear
10:35 PM 28.4 °F 24.6 °F 23.0 °F 80% 30.34 in 10.0 mi WNW 3.5 mph - N/A   Clear
10:55 PM 26.6 °F 19.1 °F 21.2 °F 80% 30.35 in 10.0 mi West 6.9 mph - N/A   Clear
11:55 PM 26.6 °F 19.1 °F 21.2 °F 80% 30.37 in 10.0 mi West 6.9 mph - N/A   Clear